WetterOnline ( https://www.wetteronline.de )

Wetter aktuell Hinterzarten

Aktuelles Wetter: Freiburg/Flugplatz (236m)

6-stündlich | Neueste Meldungen
Ortszeit Temperatur Wetter
Mi, 22.01. 13:00 -1.8° C bedeckt
Mi, 22.01. 7:00 -3.4° C Nebel
Mi, 22.01. 1:00 -4.0° C wolkenlos
Di, 21.01. 19:00 -0.9° C wolkenlos
Di, 21.01. 13:00 2.9° C wolkenlos
Di, 21.01. 7:00 -5.2° C wolkenlos
Di, 21.01. 1:00 0.9° C wolkenlos
Mo, 20.01. 19:00 2.9° C wolkenlos
Ortszeit Temperatur Wetter
Mi, 22.01. 13:00 -1.8° C bedeckt
Mi, 22.01. 12:50 -1.8° C bedeckt
Mi, 22.01. 12:40 -1.9° C bedeckt
Mi, 22.01. 12:30 -1.8° C bedeckt
Mi, 22.01. 12:20 -1.8° C bedeckt
Mi, 22.01. 12:10 -1.8° C bedeckt
Mi, 22.01. 12:00 -2.0° C bedeckt
Mi, 22.01. 11:30 -2.1° C bedeckt
Mi, 22.01. 11:00 -2.1° C bedeckt
Mi, 22.01. 10:30 -2.3° C Nebel
Mi, 22.01. 10:00 -2.5° C Nebel
Ortszeit Relative Feuchte Sichtweite
Mi, 22.01. 13:00 95% 2.8 km
Mi, 22.01. 7:00 99% 100 m
Mi, 22.01. 1:00 93% 4.2 km
Di, 21.01. 19:00 90% 7 km
Di, 21.01. 13:00 61% 20 km
Di, 21.01. 7:00 88% 12 km
Di, 21.01. 1:00 68% 15 km
Mo, 20.01. 19:00 63% 16 km
Ortszeit Relative Feuchte Sichtweite
Mi, 22.01. 13:00 95% 2.8 km
Mi, 22.01. 12:50 95% -
Mi, 22.01. 12:40 96% -
Mi, 22.01. 12:30 96% 2.5 km
Mi, 22.01. 12:20 96% -
Mi, 22.01. 12:10 96% -
Mi, 22.01. 12:00 96% 2.4 km
Mi, 22.01. 11:30 97% 1.9 km
Mi, 22.01. 11:00 96% 1.1 km
Mi, 22.01. 10:30 97% 0.6 km
Mi, 22.01. 10:00 98% 0.3 km
Ortszeit Niederschlagsmenge Niederschlagsart
Mi, 22.01. 13:00 0.1 l/m2 in 6 Std. Schnee, Sprühregen
Mi, 22.01. 7:00 0.0 l/m2 in 12 Std. -
Mi, 22.01. 1:00 0.0 l/m2 in 6 Std. -
Di, 21.01. 19:00 0.0 l/m2 in 12 Std. -
Di, 21.01. 13:00 0.0 l/m2 in 6 Std. -
Di, 21.01. 7:00 0.0 l/m2 in 12 Std. -
Di, 21.01. 1:00 0.0 l/m2 in 6 Std. -
Mo, 20.01. 19:00 0.0 l/m2 in 12 Std. -
Ortszeit Niederschlagsmenge Niederschlagsart
Mi, 22.01. 13:00 0.0 l/m2 in 1 Std. Schnee, Sprühregen
Mi, 22.01. 12:50 keine Meldung -
Mi, 22.01. 12:40 keine Meldung -
Mi, 22.01. 12:30 0.0 l/m2 in 1 Std. -
Mi, 22.01. 12:20 keine Meldung -
Mi, 22.01. 12:10 keine Meldung -
Mi, 22.01. 12:00 0.0 l/m2 in 1 Std. -
Mi, 22.01. 11:30 0.0 l/m2 in 1 Std. -
Mi, 22.01. 11:00 0.1 l/m2 in 1 Std. Schnee, Sprühregen
Mi, 22.01. 10:30 0.0 l/m2 in 1 Std. -
Mi, 22.01. 10:00 0.0 l/m2 in 1 Std. -
Ortszeit Stärke Spitze Richtung
km/h Bft. km/h Grad Sektor
Mi, 22.01. 13:00 4 1 11 330° NW
Mi, 22.01. 7:00 6 1 9 10° N
Mi, 22.01. 1:00 0 0 7 - -
Di, 21.01. 19:00 0 0 14 - -
Di, 21.01. 13:00 4 1 11 320° NW
Di, 21.01. 7:00 4 1 11 360° N
Di, 21.01. 1:00 4 1 22 60° NO
Mo, 20.01. 19:00 4 1 32 20° N
Ortszeit Stärke Spitze Richtung
km/h Bft. km/h Grad Sektor
Mi, 22.01. 13:00 4 1 7 330° NW
Mi, 22.01. 12:50 4 1 - 330° NW
Mi, 22.01. 12:40 4 1 - 320° NW
Mi, 22.01. 12:30 4 1 7 280° W
Mi, 22.01. 12:20 4 1 - 280° W
Mi, 22.01. 12:10 6 1 - 270° W
Mi, 22.01. 12:00 7 2 7 310° NW
Mi, 22.01. 11:30 4 1 7 300° NW
Mi, 22.01. 11:00 4 1 7 320° NW
Mi, 22.01. 10:30 0 0 7 - -
Mi, 22.01. 10:00 4 1 7 20° N
Ortszeit Untergrenze Bedeckung Gattung
total tief tief mittel hoch
Mi, 22.01. 13:00 90 m 8/8 8/8 - - -
Mi, 22.01. 7:00 <30 m 8/8 0/8 - - -
Mi, 22.01. 1:00 - 0/8 0/8 - - -
Di, 21.01. 19:00 - 0/8 0/8 - - -
Di, 21.01. 13:00 - 0/8 0/8 - - -
Di, 21.01. 7:00 - 0/8 0/8 - - -
Di, 21.01. 1:00 - 0/8 0/8 - - -
Mo, 20.01. 19:00 - 0/8 0/8 - - -
Ortszeit Bedeckungsgrad in Achtel und Wolkenuntergrenze
Mi, 22.01. 13:00 8(90m)
Mi, 22.01. 12:50 8(90m)
Mi, 22.01. 12:40 8(60m)
Mi, 22.01. 12:30 8(90m)
Mi, 22.01. 12:20 8(90m)
Mi, 22.01. 12:10 8(90m)
Mi, 22.01. 12:00 8(60m)
Mi, 22.01. 11:30 8(30m)
Mi, 22.01. 11:00 8(30m)
Mi, 22.01. 10:30 8(30m)
Mi, 22.01. 10:00 8(<30m)
Ortszeit Luftdruck NN (hPa) Tendenz (hPa in 3 Std.)
Mi, 22.01. 13:00 1037 - 0,3
Mi, 22.01. 7:00 1037 - 0,3
Mi, 22.01. 1:00 1039 - 0,9
Di, 21.01. 19:00 1040 - 0,4
Di, 21.01. 13:00 1041 - 1,3
Di, 21.01. 7:00 1043 + 0,5
Di, 21.01. 1:00 1043 - 0,1
Mo, 20.01. 19:00 1043 0,0
Ortszeit Luftdruck NN (hPa) Tendenz (hPa in 3 Std.)
Mi, 22.01. 13:00 1037 - 0,3
Mi, 22.01. 12:50 1037 keine Meldung
Mi, 22.01. 12:40 1037 keine Meldung
Mi, 22.01. 12:30 1037 - 0,2
Mi, 22.01. 12:20 1037 keine Meldung
Mi, 22.01. 12:10 1037 keine Meldung
Mi, 22.01. 12:00 1037 - 0,1
Mi, 22.01. 11:30 1037 0,0
Mi, 22.01. 11:00 1037 + 0,4
Mi, 22.01. 10:30 1037 + 0,5
Mi, 22.01. 10:00 1037 + 0,7
Ortszeit Schneehöhe (cm)
Mi, 22.01. 13:00 1
Mi, 22.01. 7:00 0
Mi, 22.01. 1:00 0
Di, 21.01. 19:00 0
Di, 21.01. 13:00 0
Di, 21.01. 7:00 0
Di, 21.01. 1:00 0
Mo, 20.01. 19:00 0
Ortszeit Schneehöhe (cm)
Mi, 22.01. 13:00 1
Mi, 22.01. 12:50 1
Mi, 22.01. 12:40 1
Mi, 22.01. 12:30 1
Mi, 22.01. 12:20 1
Mi, 22.01. 12:10 1
Mi, 22.01. 12:00 1
Mi, 22.01. 11:30 1
Mi, 22.01. 11:00 1
Mi, 22.01. 10:30 0
Mi, 22.01. 10:00 0
Link zu dieser Seite / Seite empfehlen

Das Wetter in ...